STARLINK-1625, 46131

Orbit data source: Space-Track

STARLINK-1625, 46131 is a payload satellite owned by SpaceX/Seattle (US) in LEO that was launched on Tue, 18 Aug 2020 UTC via an FALCON 9 launch vehicle from the Air Force Eastern Test Range (AFETR). Payload-class satellites include a variety of spacecraft equipped with specific instruments for various scientific and technological missions. These include communications satellites like Starlink; space stations such as the ISS; scientific satellites like the Hubble; Earth observation satellites from companies like Planet Labs, Umbra, and HawkEye 360; GPS; miniature CubeSats for education and research; and military/defense satellites.

Loading next visibility...
Identifier
46131, 2020-057Q
Orbit
LEO
Country
Flag of USUS
Related business
Manufacturer
SpaceX/Seattle
Mission
Operational Commercial Communications
Bus & Motor
STARLINK, Unknown motor
Mass
260 kg wet, ~248 kg dry
Launch date (UTC)
2020-08-18 (5 years ago)
Launch vehicle
FALCON 9
Launch site
Air Force Eastern Test Range (AFETR)
Object type
Payload
Rocket body
Debris
Shape & HBR
Box + 1 Pan, 4.4 m
Radar Cross Section
13.562 m², Large (>1 m²)

Expand to show TLE details & history
Last TLE update: 21 hours ago

TLE from 21 hours ago
0 STARLINK-1625
1 46131U 20057Q   25260.00228325 -.00000974  00000-0 -46521-4 0  9990
2 46131  53.0561 356.3318 0001283  74.1909 285.9221 15.06400163281422
Epoch: 2025-09-17T00:03Z
TLE epoch observation values (Epoch: 2025-09-17T00:03:17.272Z)
Latitude
-0.00007°
Longitude
-0.67471°
Altitude
547.847 km
Speed
7.589 km/s
True Right ascension
23h 45m 19s
True Declination
0° 00' 00"
Sunlit
Object was in full shadow at epoch
Visualization orbit readout
Latitude
Unknown
Longitude
Unknown
Altitude
Unknown
Speed
Unknown
Apparent Right ascension
Unknown
Apparent Declination
Unknown
Sunlit
N/A
Visualization observer readout
Local Sidereal Time
13:34:17
Azimuth
Unknown
Elevation
Unknown
Doppler factor
Unknown
Orbital elements
Apogee altitude
548.37 km
Perigee altitude
546.593 km
Semi-major axis
6,925.619 km
Eccentricity
0.00013
Inclination
53.0561°
RAAN
356.3318°
Arg. of periapsis
74.1909°
True anomaly
285.90796°
Mean anomaly
285.9221°
Eccentric anomaly
285.91503°
Mean motion
3.76578 °/min
Orbital period
95.6 mins
BSTAR
-0.000046521
Loading maneuver chart data...
Computing Atmospheric mass density...

Documentation

Showing up to 5 results
|